| time (UTC) | temp F | wind direction | speed MPH | gust MPH | rain 1hr in | rain 24hr in | rain mn in | humidity % | barometer mb |
| 20260904215958 | 72 | 245 | 3.0 | 12.0 | 0.00 | 0.00 | 0.00 | 56 | 1014.3 |
| 20260904215453 | 73 | 254 | 5.0 | 12.0 | 0.00 | 0.00 | 0.00 | 54 | 1014.1 |
| 20260904214949 | 73 | 241 | 4.0 | 5.0 | 0.00 | 0.00 | 0.00 | 54 | 1014.2 |
| 20260904214444 | 72 | 262 | 5.0 | 14.0 | 0.00 | 0.00 | 0.00 | 55 | 1014.3 |
| 20260904213939 | 73 | 228 | 3.0 | 10.0 | 0.00 | 0.00 | 0.00 | 55 | 1014.2 |
| 20260904213438 | 72 | 264 | 9.0 | 10.0 | 0.00 | 0.00 | 0.00 | 53 | 1014.2 |
| 20260904212934 | 72 | 237 | 10.0 | 14.0 | 0.00 | 0.00 | 0.00 | 53 | 1014.2 |
| 20260904212433 | 72 | 279 | 13.0 | 18.0 | 0.00 | 0.00 | 0.00 | 54 | 1014.1 |
| 20260904211930 | 71 | 239 | 2.0 | 11.0 | 0.00 | 0.00 | 0.00 | 55 | 1014.2 |
| 20260904211429 | 72 | 265 | 5.0 | 11.0 | 0.00 | 0.00 | 0.00 | 55 | 1014.2 |
| 20260904210925 | 73 | 245 | 7.0 | 12.0 | 0.00 | 0.00 | 0.00 | 53 | 1014.2 |
| 20260904210424 | 75 | 273 | 5.0 | 7.0 | 0.00 | 0.00 | 0.00 | 51 | 1014.2 |
| 20260904205920 | 73 | 252 | 3.0 | 5.0 | 0.00 | 0.00 | 0.00 | 50 | 1014.2 |
| 20260904205415 | 73 | 262 | 6.0 | 10.0 | 0.00 | 0.00 | 0.00 | 49 | 1014.2 |
| 20260904204912 | 73 | 256 | 1.0 | 8.0 | 0.00 | 0.00 | 0.00 | 45 | 1014.3 |
| 20260904204408 | 73 | 264 | 4.0 | 8.0 | 0.00 | 0.00 | 0.00 | 46 | 1014.3 |
| 20260904203904 | 73 | 249 | 4.0 | 8.0 | 0.00 | 0.00 | 0.00 | 45 | 1014.1 |
| 20260904203400 | 74 | 241 | 5.0 | 8.0 | 0.00 | 0.00 | 0.00 | 46 | 1014.2 |
| 20260904202856 | 73 | 245 | 0.0 | 3.0 | 0.00 | 0.00 | 0.00 | 50 | 1014.3 |
| 20260904202352 | 72 | 255 | 0.0 | 4.0 | 0.00 | 0.00 | 0.00 | 51 | 1014.2 |
| 20260904201847 | 71 | 251 | 5.0 | 5.0 | 0.00 | 0.00 | 0.00 | 52 | 1014.2 |
| 20260904201342 | 71 | 252 | 3.0 | 5.0 | 0.00 | 0.00 | 0.00 | 54 | 1014.2 |
| 20260904200837 | 71 | 260 | 1.0 | 3.0 | 0.00 | 0.00 | 0.00 | 52 | 1014.2 |
| 20260904200336 | 71 | 259 | 4.0 | 5.0 | 0.00 | 0.00 | 0.00 | 57 | 1014.3 |
| 20260904195836 | 70 | 251 | 2.0 | 8.0 | 0.00 | 0.00 | 0.00 | 55 | 1014.4 |
| 20260904195334 | 70 | 265 | 4.0 | 8.0 | 0.00 | 0.00 | 0.00 | 56 | 1014.4 |
| 20260904194829 | 70 | 249 | 0.0 | 4.0 | 0.00 | 0.00 | 0.00 | 62 | 1014.5 |
| 20260904194328 | 70 | 258 | 1.0 | 1.0 | 0.00 | 0.00 | 0.00 | 61 | 1014.4 |
| 20260904193823 | 70 | 262 | 4.0 | 4.0 | 0.00 | 0.00 | 0.00 | 58 | 1014.6 |
| 20260904193319 | 68 | 260 | 0.0 | 4.0 | 0.00 | 0.00 | 0.00 | 63 | 1014.6 |
| 20260904192814 | 69 | 255 | 3.0 | 8.0 | 0.00 | 0.00 | 0.00 | 62 | 1014.7 |
| 20260904192309 | 69 | 248 | 2.0 | 4.0 | 0.00 | 0.00 | 0.00 | 66 | 1014.6 |
| 20260904191806 | 70 | 252 | 3.0 | 4.0 | 0.00 | 0.00 | 0.00 | 63 | 1014.6 |
| 20260904191302 | 69 | 246 | 0.0 | 1.0 | 0.00 | 0.00 | 0.00 | 60 | 1014.7 |
| 20260904190758 | 67 | 251 | 3.0 | 4.0 | 0.00 | 0.00 | 0.00 | 65 | 1014.7 |
| 20260904190254 | 66 | 258 | 5.0 | 5.0 | 0.00 | 0.00 | 0.00 | 67 | 1014.6 |
| 20260904185750 | 66 | 250 | 3.0 | 5.0 | 0.00 | 0.00 | 0.00 | 68 | 1014.7 |
| 20260904185245 | 66 | 247 | 4.0 | 7.0 | 0.00 | 0.00 | 0.00 | 70 | 1014.7 |
| 20260904184743 | 66 | 251 | 0.0 | 3.0 | 0.00 | 0.00 | 0.00 | 71 | 1014.8 |
| 20260904184240 | 65 | 250 | 3.0 | 4.0 | 0.00 | 0.00 | 0.00 | 72 | 1014.6 |
| 20260904183735 | 64 | 248 | 5.0 | 8.0 | 0.00 | 0.00 | 0.00 | 72 | 1014.9 |
| 20260904183230 | 64 | 248 | 5.0 | 10.0 | 0.00 | 0.00 | 0.00 | 74 | 1014.8 |
| 20260904182725 | 65 | 268 | 2.0 | 4.0 | 0.00 | 0.00 | 0.00 | 78 | 1014.8 |
| 20260904182220 | 64 | 254 | 1.0 | 4.0 | 0.00 | 0.00 | 0.00 | 76 | 1014.7 |
| 20260904181716 | 64 | 252 | 2.0 | 11.0 | 0.00 | 0.00 | 0.00 | 75 | 1014.6 |
| 20260904181216 | 64 | 267 | 3.0 | 7.0 | 0.00 | 0.00 | 0.00 | 77 | 1014.8 |
| 20260904180712 | 64 | 258 | 0.0 | 7.0 | 0.00 | 0.00 | 0.00 | 80 | 1014.7 |
| 20260904180207 | 63 | 255 | 2.0 | 3.0 | 0.00 | 0.00 | 0.00 | 81 | 1014.8 |
| 20260904175706 | 63 | 264 | 3.0 | 7.0 | 0.00 | 0.00 | 0.00 | 83 | 1014.8 |
| 20260904175205 | 63 | 249 | 5.0 | 7.0 | 0.00 | 0.00 | 0.00 | 81 | 1014.7 |
| 20260904174705 | 64 | 265 | 3.0 | 5.0 | 0.00 | 0.00 | 0.00 | 82 | 1014.6 |
| 20260904174201 | 63 | 257 | 0.0 | 1.0 | 0.00 | 0.00 | 0.00 | 86 | 1014.6 |
| 20260904173656 | 63 | 257 | 0.0 | 3.0 | 0.00 | 0.00 | 0.00 | 86 | 1014.7 |
| 20260904173151 | 61 | 250 | 0.0 | 1.0 | 0.00 | 0.00 | 0.00 | 91 | 1014.6 |
| 20260904172648 | 60 | 254 | 3.0 | 4.0 | 0.00 | 0.00 | 0.00 | 91 | 1014.7 |
| 20260904172147 | 60 | 260 | 2.0 | 3.0 | 0.00 | 0.00 | 0.00 | 92 | 1014.5 |
| 20260904171642 | 59 | 254 | 3.0 | 3.0 | 0.00 | 0.00 | 0.00 | 94 | 1014.5 |
| 20260904171137 | 59 | 259 | 0.0 | 1.0 | 0.00 | 0.00 | 0.00 | 98 | 1014.5 |
| 20260904170633 | 57 | 261 | 3.0 | 4.0 | 0.00 | 0.00 | 0.00 | 99 | 1014.4 |
| 20260904170129 | 57 | 262 | 2.0 | 3.0 | 0.00 | 0.00 | 0.00 | 99 | 1014.5 |
| 20260904165628 | 57 | 257 | 2.0 | 4.0 | 0.00 | 0.00 | 0.00 | 99 | 1014.4 |
| 20260904165127 | 57 | 260 | 2.0 | 3.0 | 0.00 | 0.00 | 0.00 | 99 | 1014.5 |
| 20260904164627 | 56 | 259 | 0.0 | 4.0 | 0.00 | 0.00 | 0.00 | 99 | 1014.4 |
| 20260904164123 | 57 | 262 | 1.0 | 3.0 | 0.00 | 0.00 | 0.00 | 99 | 1014.4 |
| 20260904163618 | 57 | 261 | 1.0 | 1.0 | 0.00 | 0.00 | 0.00 | 99 | 1014.4 |
| 20260904163114 | 57 | 260 | 2.0 | 3.0 | 0.00 | 0.00 | 0.00 | 99 | 1014.4 |
| 20260904162614 | 57 | 269 | 0.0 | 0.0 | 0.00 | 0.00 | 0.00 | 99 | 1014.3 |
| 20260904162109 | 56 | 269 | 0.0 | 0.0 | 0.00 | 0.00 | 0.00 | 99 | 1014.3 |
| 20260904161604 | 55 | 269 | 0.0 | 0.0 | 0.00 | 0.00 | 0.00 | 99 | 1014.4 |
| 20260904161059 | 55 | 269 | 0.0 | 0.0 | 0.00 | 0.00 | 0.00 | 99 | 1014.4 |
| 20260904160554 | 54 | 269 | 0.0 | 0.0 | 0.00 | 0.00 | 0.00 | 99 | 1014.4 |
| 20260904160050 | 54 | 269 | 0.0 | 0.0 | 0.00 | 0.00 | 0.00 | 99 | 1014.3 |
| 20260904155549 | 54 | 269 | 0.0 | 0.0 | 0.00 | 0.00 | 0.00 | 99 | 1014.2 |
| 20260904155044 | 55 | 269 | 0.0 | 0.0 | 0.00 | 0.00 | 0.00 | 99 | 1014.4 |
| 20260904154537 | 54 | 269 | 0.0 | 0.0 | 0.00 | 0.00 | 0.00 | 99 | 1014.2 |
| 20260904154033 | 54 | 269 | 0.0 | 0.0 | 0.00 | 0.00 | 0.00 | 99 | 1014.3 |
| 20260904153532 | 55 | 269 | 0.0 | 0.0 | 0.00 | 0.00 | 0.00 | 99 | 1014.1 |
| 20260904153029 | 55 | 269 | 0.0 | 0.0 | 0.00 | 0.00 | 0.00 | 99 | 1014.1 |
| 20260904152524 | 54 | 269 | 0.0 | 0.0 | 0.00 | 0.00 | 0.00 | 99 | 1014.1 |
| 20260904152019 | 55 | 269 | 0.0 | 0.0 | 0.00 | 0.00 | 0.00 | 99 | 1014.1 |
| 20260904151515 | 54 | 269 | 0.0 | 0.0 | 0.00 | 0.00 | 0.00 | 99 | 1014.1 |
| 20260904151014 | 54 | 269 | 0.0 | 0.0 | 0.00 | 0.00 | 0.00 | 99 | 1014.0 |
| 20260904150514 | 54 | 269 | 0.0 | 0.0 | 0.00 | 0.00 | 0.00 | 99 | 1014.2 |
| 20260904150009 | 53 | 269 | 0.0 | 0.0 | 0.00 | 0.00 | 0.00 | 99 | 1014.1 |
| 20260904145503 | 53 | 269 | 0.0 | 0.0 | 0.00 | 0.00 | 0.00 | 99 | 1014.1 |
| 20260904144959 | 52 | 269 | 0.0 | 0.0 | 0.00 | 0.00 | 0.00 | 99 | 1014.0 |
| 20260904144454 | 52 | 269 | 0.0 | 0.0 | 0.00 | 0.00 | 0.00 | 99 | 1013.9 |
| 20260904143950 | 52 | 269 | 0.0 | 0.0 | 0.00 | 0.00 | 0.00 | 99 | 1013.7 |
| 20260904143446 | 52 | 269 | 0.0 | 0.0 | 0.00 | 0.00 | 0.00 | 99 | 1013.7 |
| 20260904142943 | 52 | 269 | 0.0 | 0.0 | 0.00 | 0.00 | 0.00 | 99 | 1013.6 |
| 20260904142438 | 52 | 269 | 0.0 | 0.0 | 0.00 | 0.00 | 0.00 | 99 | 1013.7 |
| 20260904141932 | 52 | 268 | 0.0 | 0.0 | 0.00 | 0.00 | 0.00 | 99 | 1013.6 |
| 20260904141427 | 52 | 268 | 0.0 | 0.0 | 0.00 | 0.00 | 0.00 | 99 | 1013.6 |
| 20260904140924 | 52 | 264 | 0.0 | 0.0 | 0.00 | 0.00 | 0.00 | 99 | 1013.6 |
| 20260904140424 | 52 | 263 | 0.0 | 0.0 | 0.00 | 0.00 | 0.00 | 99 | 1013.4 |
| 20260904135918 | 52 | 263 | 0.0 | 0.0 | 0.00 | 0.00 | 0.00 | 99 | 1013.3 |
| 20260904135418 | 52 | 262 | 0.0 | 0.0 | 0.00 | 0.00 | 0.00 | 99 | 1013.2 |
| 20260904134914 | 52 | 261 | 0.0 | 0.0 | 0.00 | 0.00 | 0.00 | 99 | 1013.2 |
| 20260904134413 | 52 | 260 | 0.0 | 0.0 | 0.00 | 0.00 | 0.00 | 99 | 1013.3 |
| 20260904133908 | 52 | 259 | 0.0 | 0.0 | 0.00 | 0.00 | 0.00 | 99 | 1013.2 |
| 20260904133403 | 52 | 257 | 0.0 | 0.0 | 0.00 | 0.00 | 0.00 | 99 | 1013.2 |
| 20260904132858 | 52 | 257 | 0.0 | 0.0 | 0.00 | 0.00 | 0.00 | 99 | 1013.1 |
| 20260904132354 | 53 | 257 | 0.0 | 0.0 | 0.00 | 0.00 | 0.00 | 99 | 1013.0 |
| 20260904131853 | 53 | 273 | 0.0 | 0.0 | 0.00 | 0.00 | 0.00 | 99 | 1013.1 |
| 20260904131349 | 53 | 274 | 0.0 | 0.0 | 0.00 | 0.00 | 0.00 | 99 | 1013.1 |
| 20260904130849 | 53 | 271 | 0.0 | 0.0 | 0.00 | 0.00 | 0.00 | 99 | 1012.9 |
| 20260904130348 | 54 | 268 | 0.0 | 0.0 | 0.00 | 0.00 | 0.00 | 99 | 1013.0 |
| 20260904125843 | 54 | 265 | 0.0 | 0.0 | 0.00 | 0.00 | 0.00 | 99 | 1012.9 |
| 20260904125339 | 54 | 261 | 0.0 | 0.0 | 0.00 | 0.00 | 0.00 | 99 | 1012.9 |
| 20260904124838 | 55 | 256 | 0.0 | 0.0 | 0.00 | 0.00 | 0.00 | 99 | 1012.6 |
| 20260904124335 | 55 | 256 | 0.0 | 0.0 | 0.00 | 0.00 | 0.00 | 99 | 1012.8 |
| 20260904123830 | 55 | 256 | 0.0 | 0.0 | 0.00 | 0.00 | 0.00 | 99 | 1012.6 |
| 20260904123325 | 55 | 256 | 0.0 | 0.0 | 0.00 | 0.00 | 0.00 | 99 | 1012.8 |
| 20260904122820 | 55 | 256 | 0.0 | 0.0 | 0.00 | 0.00 | 0.00 | 99 | 1012.6 |
| 20260904122315 | 55 | 256 | 0.0 | 0.0 | 0.00 | 0.00 | 0.00 | 99 | 1012.5 |
| 20260904121810 | 55 | 256 | 0.0 | 0.0 | 0.00 | 0.00 | 0.00 | 99 | 1012.7 |
| 20260904121306 | 55 | 256 | 0.0 | 0.0 | 0.00 | 0.00 | 0.00 | 99 | 1012.7 |
| 20260904120802 | 55 | 256 | 0.0 | 0.0 | 0.00 | 0.00 | 0.00 | 99 | 1012.6 |
| 20260904120257 | 55 | 256 | 0.0 | 0.0 | 0.00 | 0.00 | 0.00 | 99 | 1012.6 |
| 20260904115752 | 55 | 256 | 0.0 | 0.0 | 0.00 | 0.00 | 0.00 | 99 | 1012.7 |
| 20260904115247 | 55 | 256 | 0.0 | 0.0 | 0.00 | 0.00 | 0.00 | 99 | 1012.7 |
| 20260904114737 | 55 | 256 | 0.0 | 0.0 | 0.00 | 0.00 | 0.00 | 99 | 1012.5 |
| 20260904114236 | 55 | 257 | 0.0 | 0.0 | 0.00 | 0.00 | 0.00 | 99 | 1012.6 |
| 20260904113731 | 55 | 256 | 0.0 | 0.0 | 0.00 | 0.00 | 0.00 | 99 | 1012.7 |
| 20260904113230 | 56 | 256 | 0.0 | 0.0 | 0.00 | 0.00 | 0.00 | 99 | 1012.7 |
| 20260904112726 | 55 | 256 | 0.0 | 0.0 | 0.00 | 0.00 | 0.00 | 99 | 1012.7 |
| 20260904112221 | 55 | 256 | 0.0 | 0.0 | 0.00 | 0.00 | 0.00 | 99 | 1012.6 |
| 20260904111717 | 55 | 256 | 0.0 | 0.0 | 0.00 | 0.00 | 0.00 | 99 | 1012.6 |
| 20260904111213 | 55 | 256 | 0.0 | 0.0 | 0.00 | 0.00 | 0.00 | 99 | 1012.6 |
| 20260904110708 | 55 | 257 | 0.0 | 0.0 | 0.00 | 0.00 | 0.00 | 99 | 1012.6 |
| 20260904110207 | 55 | 257 | 0.0 | 0.0 | 0.00 | 0.00 | 0.00 | 99 | 1012.5 |
| 20260904105703 | 55 | 257 | 0.0 | 0.0 | 0.00 | 0.00 | 0.00 | 99 | 1012.4 |
| 20260904105157 | 55 | 257 | 0.0 | 0.0 | 0.00 | 0.00 | 0.00 | 99 | 1012.5 |
| 20260904104653 | 55 | 257 | 0.0 | 0.0 | 0.00 | 0.00 | 0.00 | 99 | 1012.5 |
| 20260904104148 | 55 | 257 | 0.0 | 0.0 | 0.00 | 0.00 | 0.00 | 99 | 1012.4 |
| 20260904103644 | 55 | 257 | 0.0 | 0.0 | 0.00 | 0.00 | 0.00 | 99 | 1012.5 |
| 20260904103139 | 55 | 257 | 0.0 | 0.0 | 0.00 | 0.00 | 0.00 | 99 | 1012.4 |
| 20260904102635 | 56 | 257 | 0.0 | 0.0 | 0.00 | 0.00 | 0.00 | 99 | 1012.5 |
| 20260904102129 | 56 | 257 | 0.0 | 0.0 | 0.00 | 0.00 | 0.00 | 99 | 1012.4 |
| 20260904101626 | 56 | 257 | 0.0 | 0.0 | 0.00 | 0.00 | 0.00 | 99 | 1012.5 |
| 20260904101122 | 56 | 257 | 0.0 | 0.0 | 0.00 | 0.00 | 0.00 | 99 | 1012.6 |
| 20260904100618 | 56 | 257 | 0.0 | 0.0 | 0.00 | 0.00 | 0.00 | 99 | 1012.4 |
| 20260904100112 | 56 | 257 | 0.0 | 0.0 | 0.00 | 0.00 | 0.00 | 99 | 1012.5 |
| 20260904095607 | 56 | 257 | 0.0 | 0.0 | 0.00 | 0.00 | 0.00 | 99 | 1012.4 |
| 20260904095102 | 56 | 257 | 0.0 | 0.0 | 0.00 | 0.00 | 0.00 | 99 | 1012.4 |
| 20260904094602 | 56 | 257 | 0.0 | 0.0 | 0.00 | 0.00 | 0.00 | 99 | 1012.4 |
| 20260904094057 | 56 | 257 | 0.0 | 0.0 | 0.00 | 0.00 | 0.00 | 99 | 1012.3 |
| 20260904093554 | 56 | 262 | 0.0 | 0.0 | 0.00 | 0.00 | 0.00 | 99 | 1012.3 |
| 20260904093049 | 57 | 261 | 0.0 | 0.0 | 0.00 | 0.00 | 0.00 | 99 | 1012.3 |
| 20260904092544 | 57 | 261 | 0.0 | 0.0 | 0.00 | 0.00 | 0.00 | 99 | 1012.3 |
| 20260904092041 | 57 | 262 | 0.0 | 0.0 | 0.00 | 0.00 | 0.00 | 99 | 1012.3 |
| 20260904091536 | 57 | 261 | 0.0 | 0.0 | 0.00 | 0.00 | 0.00 | 99 | 1012.5 |
| 20260904091036 | 57 | 261 | 0.0 | 0.0 | 0.00 | 0.00 | 0.00 | 99 | 1012.4 |
| 20260904090531 | 57 | 265 | 0.0 | 0.0 | 0.00 | 0.00 | 0.00 | 99 | 1012.4 |
| 20260904090027 | 57 | 266 | 0.0 | 0.0 | 0.00 | 0.00 | 0.00 | 99 | 1012.5 |
| 20260904085523 | 57 | 266 | 0.0 | 0.0 | 0.00 | 0.00 | 0.00 | 99 | 1012.4 |
| 20260904085022 | 57 | 266 | 0.0 | 0.0 | 0.00 | 0.00 | 0.00 | 99 | 1012.5 |
| 20260904084518 | 57 | 266 | 0.0 | 0.0 | 0.00 | 0.00 | 0.00 | 99 | 1012.4 |
| 20260904084014 | 57 | 266 | 0.0 | 0.0 | 0.00 | 0.00 | 0.00 | 99 | 1012.5 |
| 20260904083510 | 57 | 265 | 0.0 | 0.0 | 0.00 | 0.00 | 0.00 | 99 | 1012.4 |
| 20260904083006 | 57 | 256 | 0.0 | 0.0 | 0.00 | 0.00 | 0.00 | 99 | 1012.5 |
| 20260904082501 | 57 | 256 | 0.0 | 0.0 | 0.00 | 0.00 | 0.00 | 99 | 1012.5 |
| 20260904082000 | 57 | 274 | 0.0 | 0.0 | 0.00 | 0.00 | 0.00 | 99 | 1012.6 |
| 20260904081456 | 57 | 253 | 0.0 | 0.0 | 0.00 | 0.00 | 0.00 | 99 | 1012.4 |
| 20260904080952 | 57 | 271 | 0.0 | 0.0 | 0.00 | 0.00 | 0.00 | 99 | 1012.5 |
| 20260904080447 | 57 | 271 | 0.0 | 0.0 | 0.00 | 0.00 | 0.00 | 99 | 1012.5 |
| 20260904075943 | 57 | 271 | 0.0 | 0.0 | 0.00 | 0.00 | 0.00 | 99 | 1012.5 |
| 20260904075439 | 57 | 271 | 0.0 | 0.0 | 0.00 | 0.00 | 0.00 | 99 | 1012.5 |
| 20260904074938 | 57 | 271 | 0.0 | 0.0 | 0.00 | 0.00 | 0.00 | 99 | 1012.3 |
| 20260904074433 | 57 | 271 | 0.0 | 0.0 | 0.00 | 0.00 | 0.00 | 99 | 1012.3 |
| 20260904073928 | 57 | 271 | 0.0 | 0.0 | 0.00 | 0.00 | 0.00 | 99 | 1012.2 |
| 20260904073424 | 57 | 271 | 0.0 | 0.0 | 0.00 | 0.00 | 0.00 | 99 | 1012.3 |
| 20260904072919 | 57 | 271 | 0.0 | 0.0 | 0.00 | 0.00 | 0.00 | 99 | 1012.2 |
| 20260904072415 | 57 | 271 | 0.0 | 0.0 | 0.00 | 0.00 | 0.00 | 99 | 1012.3 |
| 20260904071910 | 57 | 271 | 0.0 | 0.0 | 0.00 | 0.00 | 0.00 | 99 | 1012.2 |
| 20260904071405 | 57 | 271 | 0.0 | 0.0 | 0.00 | 0.00 | 0.00 | 99 | 1012.3 |
| 20260904070859 | 58 | 270 | 0.0 | 0.0 | 0.00 | 0.00 | 0.00 | 99 | 1012.3 |
| 20260904070358 | 58 | 261 | 0.0 | 0.0 | 0.00 | 0.00 | 0.00 | 99 | 1012.3 |
| 20260904065853 | 58 | 261 | 0.0 | 0.0 | 0.00 | 0.01 | 0.01 | 99 | 1012.3 |
| 20260904065349 | 58 | 261 | 0.0 | 0.0 | 0.00 | 0.01 | 0.01 | 99 | 1012.3 |
| 20260904064844 | 58 | 261 | 0.0 | 0.0 | 0.00 | 0.01 | 0.01 | 99 | 1012.4 |
| 20260904064340 | 58 | 261 | 1.0 | 3.0 | 0.00 | 0.01 | 0.01 | 99 | 1012.3 |
| 20260904063836 | 58 | 260 | 0.0 | 1.0 | 0.00 | 0.01 | 0.01 | 99 | 1012.3 |
| 20260904063331 | 58 | 248 | 2.0 | 4.0 | 0.00 | 0.01 | 0.01 | 99 | 1012.3 |
| 20260904062826 | 59 | 257 | 0.0 | 3.0 | 0.00 | 0.01 | 0.01 | 99 | 1012.3 |
| 20260904062323 | 59 | 256 | 0.0 | 0.0 | 0.00 | 0.01 | 0.01 | 99 | 1012.4 |
| 20260904061812 | 59 | 256 | 0.0 | 0.0 | 0.00 | 0.01 | 0.01 | 99 | 1012.4 |
| 20260904061308 | 58 | 256 | 0.0 | 0.0 | 0.00 | 0.01 | 0.01 | 99 | 1012.3 |
| 20260904060805 | 58 | 256 | 0.0 | 0.0 | 0.00 | 0.01 | 0.01 | 99 | 1012.4 |
| 20260904060301 | 58 | 256 | 0.0 | 0.0 | 0.00 | 0.01 | 0.01 | 99 | 1012.3 |
| 20260904055801 | 59 | 256 | 0.0 | 0.0 | 0.00 | 0.01 | 0.01 | 99 | 1012.4 |
| 20260904055301 | 59 | 256 | 0.0 | 0.0 | 0.00 | 0.01 | 0.01 | 99 | 1012.4 |
| 20260904054756 | 59 | 256 | 0.0 | 0.0 | 0.00 | 0.01 | 0.01 | 99 | 1012.3 |
| 20260904054252 | 59 | 256 | 0.0 | 0.0 | 0.00 | 0.01 | 0.01 | 99 | 1012.4 |
| 20260904053748 | 59 | 256 | 0.0 | 3.0 | 0.00 | 0.01 | 0.01 | 99 | 1012.4 |
| 20260904053242 | 59 | 259 | 0.0 | 0.0 | 0.00 | 0.01 | 0.01 | 99 | 1012.4 |
| 20260904052738 | 59 | 252 | 0.0 | 0.0 | 0.00 | 0.01 | 0.01 | 99 | 1012.6 |
| 20260904052234 | 59 | 252 | 0.0 | 0.0 | 0.00 | 0.01 | 0.01 | 99 | 1012.5 |
| 20260904051730 | 59 | 252 | 0.0 | 0.0 | 0.00 | 0.01 | 0.01 | 99 | 1012.5 |
| 20260904051225 | 59 | 251 | 0.0 | 0.0 | 0.00 | 0.01 | 0.01 | 99 | 1012.4 |
| 20260904050720 | 59 | 251 | 0.0 | 0.0 | 0.00 | 0.01 | 0.01 | 99 | 1012.5 |
| 20260904050217 | 59 | 252 | 0.0 | 0.0 | 0.00 | 0.01 | 0.01 | 99 | 1012.6 |
| 20260904045716 | 59 | 252 | 0.0 | 0.0 | 0.00 | 0.01 | 0.01 | 99 | 1012.6 |
| 20260904045211 | 59 | 252 | 0.0 | 0.0 | 0.00 | 0.01 | 0.01 | 99 | 1012.6 |
| 20260904044706 | 59 | 252 | 0.0 | 0.0 | 0.00 | 0.01 | 0.01 | 99 | 1012.6 |
| 20260904044203 | 59 | 252 | 0.0 | 0.0 | 0.00 | 0.01 | 0.01 | 99 | 1012.6 |
| 20260904043659 | 59 | 252 | 0.0 | 0.0 | 0.00 | 0.01 | 0.01 | 99 | 1012.5 |
| 20260904043155 | 59 | 252 | 0.0 | 0.0 | 0.00 | 0.01 | 0.01 | 99 | 1012.7 |
| 20260904042650 | 59 | 252 | 0.0 | 0.0 | 0.00 | 0.01 | 0.01 | 99 | 1012.5 |
| 20260904042146 | 59 | 252 | 0.0 | 0.0 | 0.00 | 0.01 | 0.01 | 99 | 1012.5 |
| 20260904041641 | 59 | 251 | 1.0 | 1.0 | 0.00 | 0.01 | 0.01 | 99 | 1012.6 |
| 20260904041137 | 59 | 252 | 0.0 | 0.0 | 0.00 | 0.01 | 0.01 | 99 | 1012.4 |
| 20260904040633 | 59 | 252 | 0.0 | 3.0 | 0.00 | 0.01 | 0.01 | 99 | 1012.4 |
| 20260904040129 | 59 | 247 | 1.0 | 3.0 | 0.00 | 0.01 | 0.01 | 99 | 1012.5 |
| 20260904035624 | 59 | 256 | 0.0 | 0.0 | 0.00 | 0.01 | 0.01 | 99 | 1012.4 |
| 20260904035124 | 59 | 256 | 0.0 | 0.0 | 0.00 | 0.01 | 0.01 | 99 | 1012.5 |
| 20260904034618 | 59 | 266 | 0.0 | 0.0 | 0.00 | 0.01 | 0.01 | 99 | 1012.5 |
| 20260904034114 | 59 | 261 | 0.0 | 0.0 | 0.00 | 0.01 | 0.01 | 99 | 1012.4 |
| 20260904033609 | 59 | 272 | 0.0 | 0.0 | 0.00 | 0.01 | 0.01 | 99 | 1012.2 |
| 20260904033107 | 59 | 266 | 0.0 | 0.0 | 0.00 | 0.01 | 0.01 | 99 | 1012.4 |
| 20260904032608 | 59 | 266 | 0.0 | 0.0 | 0.00 | 0.01 | 0.01 | 99 | 1012.4 |
| 20260904032106 | 59 | 266 | 0.0 | 0.0 | 0.00 | 0.01 | 0.01 | 99 | 1012.3 |
| 20260904031606 | 59 | 266 | 0.0 | 0.0 | 0.00 | 0.01 | 0.01 | 99 | 1012.3 |
| 20260904031102 | 59 | 265 | 0.0 | 0.0 | 0.00 | 0.01 | 0.01 | 99 | 1012.1 |
| 20260904030558 | 59 | 264 | 0.0 | 0.0 | 0.00 | 0.01 | 0.01 | 99 | 1012.2 |
| 20260904030053 | 59 | 266 | 0.0 | 0.0 | 0.00 | 0.01 | 0.01 | 99 | 1012.1 |
| 20260904025548 | 59 | 271 | 0.0 | 0.0 | 0.00 | 0.01 | 0.01 | 99 | 1012.2 |
| 20260904025043 | 59 | 271 | 0.0 | 0.0 | 0.00 | 0.01 | 0.01 | 99 | 1012.1 |
| 20260904024539 | 59 | 271 | 0.0 | 0.0 | 0.00 | 0.01 | 0.01 | 99 | 1012.1 |
| 20260904024035 | 59 | 271 | 0.0 | 0.0 | 0.00 | 0.01 | 0.01 | 99 | 1012.1 |
| 20260904023531 | 59 | 29 | 0.0 | 0.0 | 0.00 | 0.01 | 0.01 | 99 | 1012.0 |
| 20260904023026 | 58 | 29 | 0.0 | 0.0 | 0.00 | 0.01 | 0.01 | 99 | 1012.1 |
| 20260904022520 | 58 | 29 | 0.0 | 0.0 | 0.00 | 0.01 | 0.01 | 99 | 1012.1 |
| 20260904022018 | 58 | 29 | 0.0 | 0.0 | 0.00 | 0.01 | 0.01 | 99 | 1012.2 |
| 20260904021513 | 59 | 29 | 0.0 | 0.0 | 0.00 | 0.01 | 0.01 | 99 | 1012.2 |
| 20260904021008 | 59 | 29 | 0.0 | 0.0 | 0.00 | 0.01 | 0.01 | 99 | 1012.2 |
| 20260904020503 | 59 | 29 | 0.0 | 0.0 | 0.00 | 0.01 | 0.01 | 99 | 1012.4 |
| 20260904020001 | 59 | 29 | 0.0 | 0.0 | 0.00 | 0.01 | 0.01 | 99 | 1012.3 |
| 20260904015457 | 59 | 29 | 0.0 | 0.0 | 0.00 | 0.01 | 0.01 | 99 | 1012.4 |
| 20260904014955 | 59 | 29 | 0.0 | 0.0 | 0.00 | 0.01 | 0.01 | 99 | 1012.4 |
| 20260904014450 | 58 | 29 | 0.0 | 0.0 | 0.00 | 0.01 | 0.01 | 99 | 1012.4 |
| 20260904013946 | 58 | 29 | 0.0 | 0.0 | 0.00 | 0.01 | 0.01 | 99 | 1012.4 |
| 20260904013442 | 58 | 31 | 0.0 | 0.0 | 0.00 | 0.01 | 0.01 | 99 | 1012.5 |
| 20260904012938 | 58 | 322 | 0.0 | 0.0 | 0.00 | 0.01 | 0.01 | 99 | 1012.6 |
| 20260904012437 | 58 | 326 | 0.0 | 0.0 | 0.00 | 0.01 | 0.01 | 99 | 1012.6 |
| 20260904011932 | 58 | 258 | 0.0 | 0.0 | 0.00 | 0.01 | 0.01 | 99 | 1012.7 |
| 20260904011427 | 59 | 258 | 0.0 | 0.0 | 0.00 | 0.01 | 0.01 | 99 | 1012.7 |
| 20260904010922 | 58 | 258 | 0.0 | 0.0 | 0.00 | 0.01 | 0.01 | 99 | 1012.7 |
| 20260904010419 | 59 | 258 | 0.0 | 0.0 | 0.00 | 0.01 | 0.01 | 99 | 1012.8 |
| 20260904005914 | 59 | 257 | 0.0 | 0.0 | 0.00 | 0.01 | 0.01 | 99 | 1012.8 |
| 20260904005410 | 60 | 257 | 0.0 | 0.0 | 0.00 | 0.01 | 0.01 | 99 | 1012.8 |
| 20260904004909 | 59 | 257 | 0.0 | 0.0 | 0.00 | 0.01 | 0.01 | 99 | 1012.7 |
| 20260904004407 | 59 | 257 | 0.0 | 0.0 | 0.00 | 0.01 | 0.01 | 99 | 1012.8 |
| 20260904003906 | 59 | 257 | 0.0 | 0.0 | 0.00 | 0.01 | 0.01 | 99 | 1012.9 |
| 20260904003402 | 60 | 257 | 0.0 | 0.0 | 0.00 | 0.01 | 0.01 | 99 | 1012.9 |
| 20260904002857 | 60 | 257 | 0.0 | 0.0 | 0.00 | 0.01 | 0.01 | 99 | 1012.8 |
| 20260904002354 | 59 | 257 | 0.0 | 0.0 | 0.00 | 0.01 | 0.01 | 99 | 1012.9 |
| 20260904001852 | 60 | 257 | 0.0 | 0.0 | 0.00 | 0.01 | 0.01 | 99 | 1013.1 |
| 20260904001348 | 59 | 265 | 0.0 | 0.0 | 0.00 | 0.01 | 0.01 | 99 | 1013.2 |
| 20260904000843 | 59 | 265 | 0.0 | 0.0 | 0.00 | 0.01 | 0.01 | 99 | 1013.2 |
| 20260904000342 | 59 | 255 | 0.0 | 0.0 | 0.00 | 0.01 | 0.01 | 99 | 1013.2 |
| 20260903235842 | 59 | 254 | 0.0 | 1.0 | 0.00 | 0.01 | 0.01 | 99 | 1013.2 |
| 20260903235339 | 59 | 251 | 4.0 | 5.0 | 0.00 | 0.01 | 0.01 | 99 | 1013.3 |
| 20260903234837 | 60 | 257 | 1.0 | 4.0 | 0.00 | 0.01 | 0.01 | 99 | 1013.3 |
| 20260903234334 | 60 | 253 | 0.0 | 1.0 | 0.00 | 0.01 | 0.01 | 99 | 1013.3 |
| 20260903233830 | 60 | 255 | 6.0 | 8.0 | 0.00 | 0.01 | 0.01 | 99 | 1013.4 |
| 20260903233326 | 60 | 259 | 4.0 | 7.0 | 0.00 | 0.01 | 0.01 | 99 | 1013.3 |
| 20260903232825 | 60 | 249 | 0.0 | 0.0 | 0.00 | 0.01 | 0.01 | 99 | 1013.3 |
| 20260903232321 | 60 | 262 | 0.0 | 0.0 | 0.00 | 0.01 | 0.01 | 99 | 1013.4 |
| 20260903231820 | 60 | 262 | 0.0 | 0.0 | 0.00 | 0.01 | 0.01 | 98 | 1013.5 |
| 20260903231315 | 61 | 262 | 0.0 | 0.0 | 0.00 | 0.01 | 0.01 | 98 | 1013.4 |
| 20260903230811 | 61 | 262 | 0.0 | 0.0 | 0.00 | 0.01 | 0.01 | 98 | 1013.6 |
| 20260903230306 | 61 | 262 | 0.0 | 0.0 | 0.00 | 0.01 | 0.01 | 98 | 1013.6 |
| 20260903225802 | 61 | 262 | 0.0 | 0.0 | 0.00 | 0.01 | 0.01 | 98 | 1013.6 |
| 20260903225258 | 61 | 262 | 0.0 | 0.0 | 0.00 | 0.01 | 0.01 | 98 | 1013.5 |
| 20260903224754 | 61 | 262 | 0.0 | 0.0 | 0.00 | 0.01 | 0.01 | 97 | 1013.6 |
| 20260903224250 | 62 | 273 | 2.0 | 3.0 | 0.00 | 0.01 | 0.01 | 97 | 1013.7 |
| 20260903223745 | 61 | 259 | 0.0 | 0.0 | 0.00 | 0.01 | 0.01 | 97 | 1013.7 |
| 20260903223243 | 61 | 256 | 0.0 | 0.0 | 0.00 | 0.01 | 0.01 | 97 | 1013.7 |
| 20260903222739 | 61 | 239 | 4.0 | 4.0 | 0.00 | 0.01 | 0.01 | 97 | 1013.8 |
| 20260903222238 | 61 | 261 | 3.0 | 8.0 | 0.00 | 0.01 | 0.01 | 96 | 1013.9 |
| 20260903221733 | 62 | 264 | 2.0 | 8.0 | 0.07 | 0.01 | 0.01 | 95 | 1013.8 |
| 20260903221231 | 62 | 252 | 2.0 | 4.0 | 0.07 | 0.01 | 0.01 | 94 | 1013.8 |
| 20260903220730 | 63 | 315 | 3.0 | 7.0 | 0.00 | 0.00 | 0.00 | 91 | 1013.8 |
| 20260903220225 | 65 | 273 | 6.0 | 8.0 | 0.00 | 0.00 | 0.00 | 86 | 1013.7 |